Weather in Harryda

Sweden     57°41′28″N   12°18′17″E
temp.,
°C
wind,
m/s
gust,
m/s
humid.,
%
clouds,
%
prec.,
mm/h
press.,
hPa
HPBL,
m
17 april, sat
sat1723:00+6ne296594 0.0 1029257
02:00+5ne296593 0.0 1029241
05:00+4nne3117178 0.0 1029314
08:00+5ne41266100 0.0 1029411
11:00+11ne584034 0.0 1028907
14:00+14ene573681 0.0 10271299
17:00+14ene5743100 0.0 10261266
20:00+11ene395898 0.0 1027383
18 april, sun
sun1823:00+8ene31171100 0.0 1028374
02:00+7ne31068100 0.0 1028446
05:00+5ne3107172 0.0 1027324
08:00+6ene49695 0.0 1027331
11:00+13ene46535 0.0 1026913
14:00+16e3547100 0.0 10261794
17:00+14e355895 0.0 1026846
20:00+12ene236790 0.0 102661
19 april, mon
mon1923:00+9ene28748 0.0 1027209
02:00+6ene28775 0.0 1027163
05:00+4ene28735 0.0 1027167
08:00+7ene36610 0.0 1027248
11:00+13ene35410 0.0 1026981
14:00+16e34305 0.0 10241747
17:00+17e34305 0.0 10232059
20:00+12ene38503 0.0 1023235
20 april, tue
tue2023:00+8ese411610 0.0 1023331
02:00+5ese27740 0.0 1023157
05:00+4ese25785 0.0 102288
08:00+7ese23605 0.0 1021198
11:00+13ese12370 0.0 10201218
14:00+15wsw32325 0.0 10171930
17:00+13wsw33392 0.0 1016978
20:00+8wsw25620 0.0 1015169
21 april, wed
wed2123:00+5ssw28865 0.0 1014182
02:00+6sw31090100 0.0 1012381
05:00+5w511797 0.2 1010888
08:00+6w611664 0.2 10081055
11:00+8wnw710465 0.0 10071729
14:00+9wnw7113768 0.0 10072081
17:00+9wnw813400 0.0 10062657
20:00+6wnw5105164 0.1 10051001